Location: Narragansett
(41.4496°N, 71.4488°W)
Time: 01:20:05
(UTC+00:00)

Tiangong - Visible Passes

Search period start: 18 September 2021 00:00
Search period end: 28 September 2021 00:00
Orbit: 380 x 385 km, 41.5° (Epoch: 17 September)

Date Brightness Start Highest point End Pass type
(mag) Time Alt. Az. Time Alt. Az. Time Alt. Az.
23 Sep 4.1 09:55:50 10° SSE 09:56:21 10° SE 09:56:51 10° SE visible
25 Sep 3.5 09:28:13 10° SSW 09:30:19 17° SSE 09:32:26 10° ESE visible
26 Sep 2.1 10:02:16 10° SW 10:05:13 40° SSE 10:08:12 10° E visible
27 Sep 2.6 09:03:11 24° S 09:03:41 25° SSE 09:06:21 10° E visible
